This demonstration page uses our WeatherBlox Daily Observations layout. Learn more.

Left ArrowRight Arrow

34.16533, -84.80231

Hourly Observations for September 28, 2022

Temp ( °F °C ) Dew Point ( °F °C ) Humidity (%) Winds ( mph kmh ) Pressure ( in mb ) Visibility ( mi km ) Precip ( " mm )
12:15 am 00:15 Clear 52 11 43 6 71 71 Calm 30.18 1022 10 16 0.00 0.00
12:35 am 00:35 Clear 52 11 43 6 71 71 Calm 30.18 1022 10 16 0.00 0.00
12:55 am 00:55 Clear 52 11 43 6 71 71 Calm 30.18 1022 10 16 0.00 0.00
1:15 am 01:15 Clear 50 10 43 6 76 76 Calm 30.18 1022 10 16 0.00 0.00
1:35 am 01:35 Clear 50 10 43 6 76 76 Calm 30.18 1022 10 16 0.00 0.00
1:55 am 01:55 Clear 50 10 43 6 76 76 Calm 30.19 1022 10 16 0.00 0.00
2:15 am 02:15 Clear 48 9 43 6 81 81 Calm 30.19 1022 10 16 0.00 0.00
2:35 am 02:35 Clear 50 10 43 6 76 76 SSE 3 6 30.19 1022 10 16 0.00 0.00
2:55 am 02:55 Clear 48 9 43 6 81 81 Calm 30.19 1022 10 16 0.00 0.00
3:15 am 03:15 Clear 50 10 43 6 76 76 Calm 30.20 1023 10 16 0.00 0.00
3:35 am 03:35 Clear 50 10 43 6 76 76 Calm 30.20 1023 10 16 0.00 0.00
3:55 am 03:55 Clear 48 9 43 6 81 81 Calm 30.19 1022 10 16 0.00 0.00
4:15 am 04:15 Clear 50 10 43 6 76 76 Calm 30.20 1023 10 16 0.00 0.00
4:35 am 04:35 Clear 48 9 43 6 81 81 Calm 30.20 1023 10 16 0.00 0.00
4:55 am 04:55 Clear 46 8 43 6 87 87 Calm 30.20 1023 10 16 0.00 0.00
5:15 am 05:15 Clear 46 8 43 6 87 87 Calm 30.20 1023 10 16 0.00 0.00
5:35 am 05:35 Clear 46 8 43 6 87 87 Calm 30.20 1023 10 16 0.00 0.00
5:55 am 05:55 Clear 46 8 43 6 87 87 Calm 30.20 1023 10 16 0.00 0.00
6:15 am 06:15 Clear 45 7 43 6 93 93 Calm 30.21 1023 10 16 0.00 0.00
6:35 am 06:35 Clear 45 7 43 6 93 93 Calm 30.23 1024 10 16 0.00 0.00
6:55 am 06:55 Clear 45 7 41 5 87 87 Calm 30.23 1024 10 16 0.00 0.00
7:15 am 07:15 Clear 45 7 41 5 87 87 Calm 30.23 1024 10 16 0.00 0.00
7:35 am 07:35 Sunny 45 7 43 6 93 93 Calm 30.23 1024 10 16 0.00 0.00
7:55 am 07:55 Sunny 45 7 41 5 87 87 Calm 30.23 1024 10 16 0.00 0.00
8:15 am 08:15 Sunny 46 8 43 6 87 87 Calm 30.24 1024 10 16 0.00 0.00
8:35 am 08:35 Sunny 46 8 43 6 87 87 Calm 30.25 1024 10 16 0.00 0.00
8:55 am 08:55 Sunny 50 10 45 7 82 82 Calm 30.24 1024 10 16 0.00 0.00
9:15 am 09:15 Sunny 52 11 45 7 76 76 Calm 30.23 1024 10 16 0.00 0.00
9:35 am 09:35 Sunny 55 13 43 6 62 62 Calm 30.23 1024 10 16 0.00 0.00
9:55 am 09:55 Sunny 57 14 43 6 58 58 NE 5 7 30.24 1024 10 16 0.00 0.00
10:15 am 10:15 Sunny 59 15 43 6 55 55 VRB 7 11 30.24 1024 10 16 0.00 0.00
10:35 am 10:35 Sunny 61 16 41 5 48 48 VRB 6 9 30.24 1024 10 16 0.00 0.00
10:55 am 10:55 Sunny 63 17 41 5 45 45 VRB 6 9 30.24 1024 10 16 0.00 0.00
11:15 am 11:15 Sunny 64 18 39 4 39 39 VRB 7 11 30.24 1024 10 16 0.00 0.00
11:35 am 11:35 Sunny 66 19 39 4 37 37 N 10 17 30.24 1024 10 16 0.00 0.00
11:55 am 11:55 Sunny 66 19 39 4 37 37 NNE 10 17 30.24 1024 10 16 0.00 0.00
12:15 pm 12:15 Sunny 68 20 37 3 32 32 N 9 15 30.22 1023 10 16 0.00 0.00
12:35 pm 12:35 Sunny 68 20 37 3 32 32 NNE 10 17 30.22 1023 10 16 0.00 0.00
12:55 pm 12:55 Sunny 70 21 39 4 33 33 NNE 8 13 30.21 1023 10 16 0.00 0.00
1:15 pm 13:15 Sunny 70 21 39 4 33 33 N 8 13 30.21 1023 10 16 0.00 0.00
1:35 pm 13:35 Sunny 70 21 39 4 33 33 N 12 19 30.21 1023 10 16 0.00 0.00
1:55 pm 13:55 Sunny 70 21 39 4 33 33 NNW 10 17 30.20 1023 10 16 0.00 0.00
2:15 pm 14:15 Sunny 70 21 39 4 33 33 VRB 6 9 30.19 1022 10 16 0.00 0.00
2:35 pm 14:35 Sunny 70 21 39 4 33 33 VRB 6 9 30.18 1022 10 16 0.00 0.00
2:55 pm 14:55 Sunny 70 21 41 5 35 35 NNE 8 13 30.17 1022 10 16 0.00 0.00
3:15 pm 15:15 Sunny 72 22 41 5 33 33 N 9 15 30.17 1022 10 16 0.00 0.00
3:35 pm 15:35 Sunny 70 21 39 4 33 33 NW 9 15 30.17 1022 10 16 0.00 0.00
3:55 pm 15:55 Sunny 72 22 39 4 31 31 VRB 7 11 30.16 1021 10 16 0.00 0.00
4:15 pm 16:15 Sunny 70 21 37 3 30 30 N 10 17 30.16 1021 10 16 0.00 0.00
4:35 pm 16:35 Sunny 72 22 37 3 29 29 N 9 15 30.16 1021 9 14 0.00 0.00
4:55 pm 16:55 Sunny 70 21 37 3 30 30 N 10 17 30.15 1021 10 16 0.00 0.00
5:15 pm 17:15 Sunny 70 21 37 3 30 30 NNE 14 22 30.15 1021 10 16 0.00 0.00
5:35 pm 17:35 Sunny 70 21 37 3 30 30 N 8 13 30.15 1021 10 16 0.00 0.00
5:55 pm 17:55 Sunny 70 21 36 2 28 28 N 8 13 30.15 1021 10 16 0.00 0.00
6:15 pm 18:15 Sunny 70 21 36 2 28 28 NNW 10 17 30.16 1021 10 16 0.00 0.00
6:35 pm 18:35 Sunny 68 20 37 3 32 32 VRB 6 9 30.15 1021 10 16 0.00 0.00
6:55 pm 18:55 Sunny 66 19 37 3 34 34 VRB 5 7 30.16 1021 10 16 0.00 0.00
7:15 pm 19:15 Sunny 66 19 37 3 34 34 VRB 5 7 30.17 1022 10 16 0.00 0.00
7:35 pm 19:35 Clear 64 18 39 4 39 39 VRB 5 7 30.17 1022 10 16 0.00 0.00
7:55 pm 19:55 Clear 63 17 39 4 42 42 Calm 30.17 1022 10 16 0.00 0.00
8:15 pm 20:15 Clear 63 17 39 4 42 42 VRB 5 7 30.17 1022 10 16 0.00 0.00
8:35 pm 20:35 Clear 61 16 39 4 45 45 VRB 6 9 30.18 1022 10 16 0.00 0.00
8:55 pm 20:55 Clear 61 16 39 4 45 45 VRB 7 11 30.18 1022 10 16 0.00 0.00
9:15 pm 21:15 Clear 59 15 39 4 48 48 NNE 9 15 30.18 1022 10 16 0.00 0.00
9:35 pm 21:35 Clear 59 15 39 4 48 48 NNE 8 13 30.20 1023 10 16 0.00 0.00
9:55 pm 21:55 Clear 59 15 39 4 48 48 NNE 8 13 30.21 1023 10 16 0.00 0.00
10:15 pm 22:15 Clear 57 14 39 4 51 51 NNE 9 15 30.22 1023 10 16 0.00 0.00
10:35 pm 22:35 Clear 57 14 41 5 55 55 NNE 8 13 30.22 1023 10 16 0.00 0.00
10:55 pm 22:55 Clear 57 14 41 5 55 55 NNE 5 7 30.23 1024 10 16 0.00 0.00
11:15 pm 23:15 Clear 55 13 41 5 58 58 NNE 6 9 30.23 1024 10 16 0.00 0.00
11:35 pm 23:35 Mostly Clear 55 13 41 5 58 58 Calm 30.24 1024 10 16 0.00 0.00
11:55 pm 23:55 Mostly Clear 55 13 41 5 58 58 Calm 30.24 1024 10 16 0.00 0.00

Powered by AerisWeather